This is the latest recevied weather packets stored in our database for station/object DH0DM-13. If no packets are shown the sender has not sent any weather packets the latest 10 day(s).
| Time | Temp. | Humidity | Pressure | Rain* | Wind** | Luminosity | Snow |
|---|---|---|---|---|---|---|---|
| 1787632624 | 11.67° C | 88% | 990.9 hPa | 0 mm | 4.47 m/s, 86° | - | - |
| 1787632023 | 11.67° C | 88% | 990.5 hPa | 0 mm | 8.05 m/s, 50° | - | - |
| 1787631422 | 11.67° C | 87% | 990.6 hPa | 0 mm | 5.81 m/s, 92° | - | - |
| 1787630821 | 12.22° C | 86% | 990.7 hPa | 0 mm | 3.58 m/s, 81° | - | - |
| 1787630220 | 12.22° C | 86% | 990.7 hPa | 0 mm | 5.36 m/s, 70° | - | - |
| 1787629619 | 12.22° C | 84% | 990.7 hPa | 0 mm | 0.89 m/s, 76° | - | - |
| 1787629018 | 12.78° C | 83% | 991 hPa | 0 mm | 1.34 m/s, 88° | - | - |
| 1787628417 | 12.78° C | 82% | 990.8 hPa | 0 mm | 0.89 m/s, 86° | - | - |
| 1787627816 | 13.33° C | 81% | 991 hPa | 0 mm | 4.02 m/s, 49° | - | - |
| 1787627215 | 13.33° C | 80% | 990.9 hPa | 0 mm | 4.92 m/s, 71° | - | - |
| 1787626615 | 13.33° C | 80% | 990.9 hPa | 0 mm | 2.68 m/s, 105° | - | - |
| 1787626014 | 13.33° C | 80% | 990.8 hPa | 0 mm | 4.92 m/s, 78° | - | - |
| 1787625413 | 13.33° C | 80% | 991 hPa | 0 mm | 1.34 m/s, 60° | - | - |
| 1787624812 | 12.78° C | 82% | 991 hPa | 0 mm | 6.71 m/s, 68° | - | - |
| 1787624211 | 12.78° C | 82% | 991.3 hPa | 0 mm | 2.68 m/s, 84° | - | - |
| 1787623610 | 13.33° C | 81% | 991.4 hPa | 0 mm | 0.89 m/s, 12° | - | - |
| 1787623009 | 13.33° C | 80% | 991.5 hPa | 0 mm | 4.02 m/s, 69° | - | - |
| 1787622408 | 13.33° C | 80% | 991.6 hPa | 0 mm | 2.68 m/s, 20° | - | - |
| 1787621807 | 13.33° C | 80% | 991.6 hPa | 0 mm | 1.34 m/s, 103° | - | - |
| 1787621206 | 13.33° C | 79% | 991.5 hPa | 0 mm | 4.92 m/s, 58° | - | - |
| 1787620605 | 13.33° C | 80% | 991.9 hPa | 0 mm | 3.58 m/s, 129° | - | - |
| 1787620004 | 13.33° C | 81% | 991.8 hPa | 0 mm | 0.45 m/s, 56° | - | - |
| 1787619404 | 12.78° C | 82% | 991.7 hPa | 0 mm | 0 m/s | - | - |
| 1787618803 | 12.78° C | 82% | 991.9 hPa | 0 mm | 0 m/s | - | - |
| 1787618202 | 12.78° C | 83% | 991.9 hPa | 0 mm | 0.45 m/s, 15° | - | - |
* Rain since midnight (hover to see other rain measurements)
** Current wind speed in m/s (hover to see current wind gust speed)